Hourly Weather Barra do Bugres

Today, 8 May, Saturday

Time Temperature Precipitation Wind Pressure Humidity
00:00 +15°C° 0 mm 0 mps 750 mmHg 92%
01:00 +14°C° 0 mm 0 mps 749 mmHg 94%
02:00 +15°C° 0 mm 1 mps 749 mmHg 96%
03:00 +14°C° 0 mm 1 mps 749 mmHg 96%
04:00 +13°C° 0 mm 0 mps 749 mmHg 97%
05:00 +13°C° 0 mm 0 mps 749 mmHg 97%
06:00 +15°C° 0 mm 0 mps 750 mmHg 90%
07:00 +16°C° 0 mm 0 mps 751 mmHg 84%
08:00 +18°C° 0 mm 0 mps 751 mmHg 77%
09:00 +21°C° 0 mm 0 mps 751 mmHg 67%
10:00 +24°C° 0 mm 0 mps 751 mmHg 57%
11:00 +29°C° 0 mm 1 mps 750 mmHg 46%
12:00 +29°C° 0 mm 0 mps 749 mmHg 44%
13:00 +30°C° 0 mm 0 mps 748 mmHg 41%
14:00 +31°C° 0 mm 0 mps 747 mmHg 38%
15:00 +30°C° 0 mm 0 mps 747 mmHg 44%
16:00 +28°C° 0 mm 0 mps 747 mmHg 49%
17:00 +29°C° 0 mm 1 mps 746 mmHg 54%
18:00 +25°C° 0 mm 0 mps 747 mmHg 59%
19:00 +23°C° 0 mm 0 mps 747 mmHg 63%
20:00 +22°C° 0 mm 0 mps 747 mmHg 68%
21:00 +21°C° 0 mm 0 mps 748 mmHg 70%
22:00 +21°C° 0 mm 0 mps 748 mmHg 72%
23:00 +22°C° 0 mm 1 mps 748 mmHg 74%

Tomorrow, 9 May, Sunday

Time Temperature Precipitation Wind Pressure Humidity
00:00 +20°C° 0 mm 0 mps 747 mmHg 75%
01:00 +19°C° 0 mm 0 mps 747 mmHg 77%
02:00 +19°C° 0 mm 0 mps 747 mmHg 78%
03:00 +19°C° 0 mm 0 mps 747 mmHg 80%
04:00 +18°C° 0 mm 0 mps 747 mmHg 81%
05:00 +18°C° 0 mm 0 mps 747 mmHg 82%
06:00 +20°C° 0 mm 0 mps 748 mmHg 75%
07:00 +22°C° 0 mm 0 mps 748 mmHg 68%
08:00 +23°C° 0 mm 0 mps 749 mmHg 61%
09:00 +26°C° 0 mm 0 mps 749 mmHg 53%
10:00 +29°C° 0 mm 0 mps 749 mmHg 46%
11:00 +32°C° 0 mm 0 mps 748 mmHg 38%
12:00 +35°C° 0 mm 1 mps 747 mmHg 35%
13:00 +36°C° 0 mm 1 mps 747 mmHg 33%
14:00 +37°C° 0 mm 1 mps 746 mmHg 30%
15:00 +35°C° 0 mm 1 mps 745 mmHg 35%
16:00 +33°C° 0 mm 1 mps 745 mmHg 41%
17:00 +31°C° 0 mm 1 mps 745 mmHg 46%
18:00 +30°C° 0 mm 1 mps 745 mmHg 50%
19:00 +26°C° 0 mm 0 mps 746 mmHg 54%
20:00 +24°C° 0 mm 0 mps 746 mmHg 57%
21:00 +24°C° 0 mm 0 mps 746 mmHg 59%
22:00 +23°C° 0 mm 0 mps 746 mmHg 61%
23:00 +23°C° 0 mm 0 mps 746 mmHg 63%

Day after tomorrow, 10 May, Monday

Time Temperature Precipitation Wind Pressure Humidity
00:00 +22°C° 0 mm 0 mps 746 mmHg 64%
01:00 +22°C° 0 mm 0 mps 746 mmHg 65%
02:00 +22°C° 0 mm 0 mps 746 mmHg 66%
03:00 +21°C° 0 mm 0 mps 746 mmHg 69%
04:00 +21°C° 0 mm 0 mps 746 mmHg 71%
05:00 +20°C° 0 mm 0 mps 746 mmHg 74%
06:00 +22°C° 0 mm 0 mps 747 mmHg 68%
07:00 +24°C° 0 mm 0 mps 748 mmHg 62%
08:00 +26°C° 0 mm 0 mps 748 mmHg 56%
09:00 +28°C° 0 mm 0 mps 748 mmHg 49%
10:00 +33°C° 0 mm 1 mps 748 mmHg 42%
11:00 +36°C° 0 mm 1 mps 748 mmHg 35%
12:00 +37°C° 0 mm 1 mps 747 mmHg 32%
13:00 +37°C° 0 mm 1 mps 746 mmHg 29%
14:00 +39°C° 0 mm 1 mps 745 mmHg 26%
15:00 +36°C° 0 mm 1 mps 745 mmHg 30%
16:00 +34°C° 0 mm 1 mps 745 mmHg 35%
17:00 +32°C° 0 mm 1 mps 744 mmHg 39%
18:00 +31°C° 0 mm 1 mps 745 mmHg 42%
19:00 +29°C° 0 mm 1 mps 745 mmHg 44%
20:00 +26°C° 0 mm 0 mps 745 mmHg 46%
21:00 +26°C° 0 mm 0 mps 746 mmHg 47%
22:00 +26°C° 0 mm 0 mps 746 mmHg 47%
23:00 +26°C° 0 mm 0 mps 746 mmHg 47%

11 May, Tuesday

Time Temperature Precipitation Wind Pressure Humidity
00:00 +27°C° 0 mm 1 mps 746 mmHg 49%
01:00 +27°C° 0 mm 1 mps 746 mmHg 50%
02:00 +26°C° 0 mm 1 mps 746 mmHg 52%
03:00 +24°C° 0 mm 0 mps 746 mmHg 54%
04:00 +23°C° 0 mm 0 mps 746 mmHg 56%
05:00 +23°C° 0 mm 0 mps 746 mmHg 58%
06:00 +24°C° 0 mm 0 mps 746 mmHg 56%
07:00 +25°C° 0 mm 0 mps 747 mmHg 54%
08:00 +26°C° 0 mm 0 mps 747 mmHg 51%
09:00 +29°C° 0 mm 0 mps 747 mmHg 46%
10:00 +32°C° 0 mm 0 mps 747 mmHg 40%
11:00 +34°C° 0 mm 0 mps 746 mmHg 34%
12:00 +35°C° 0 mm 0 mps 746 mmHg 33%
13:00 +35°C° 0 mm 0 mps 745 mmHg 31%
14:00 +36°C° 0 mm 0 mps 744 mmHg 30%
15:00 +34°C° 0 mm 0 mps 744 mmHg 34%
16:00 +32°C° 0 mm 0 mps 743 mmHg 38%
17:00 +30°C° 0 mm 0 mps 743 mmHg 43%
18:00 +29°C° 0 mm 0 mps 744 mmHg 45%
19:00 +28°C° 0 mm 0 mps 744 mmHg 46%
20:00 +27°C° 0 mm 0 mps 744 mmHg 48%
21:00 +27°C° 0 mm 0 mps 744 mmHg 49%
22:00 +27°C° 0 mm 0 mps 745 mmHg 49%
23:00 +26°C° 0 mm 0 mps 745 mmHg 50%

12 May, Wednesday

Time Temperature Precipitation Wind Pressure Humidity
00:00 +26°C° 0 mm 0 mps 745 mmHg 51%
01:00 +25°C° 0 mm 0 mps 745 mmHg 53%
02:00 +25°C° 0 mm 0 mps 745 mmHg 54%
03:00 +27°C° 0 mm 1 mps 745 mmHg 54%
04:00 +26°C° 0 mm 1 mps 746 mmHg 54%
05:00 +26°C° 0 mm 1 mps 746 mmHg 54%
06:00 +27°C° 0 mm 1 mps 747 mmHg 52%
07:00 +28°C° 0 mm 1 mps 748 mmHg 50%
08:00 +28°C° 0 mm 1 mps 748 mmHg 49%
09:00 +30°C° 0 mm 1 mps 748 mmHg 45%
10:00 +32°C° 0 mm 1 mps 748 mmHg 40%
11:00 +35°C° 0 mm 2 mps 748 mmHg 36%
12:00 +36°C° 0 mm 2 mps 747 mmHg 35%
13:00 +36°C° 0 mm 2 mps 746 mmHg 33%
14:00 +37°C° 0 mm 2 mps 745 mmHg 32%
15:00 +35°C° 0 mm 2 mps 745 mmHg 35%
16:00 +34°C° 0 mm 2 mps 745 mmHg 39%
17:00 +32°C° 0 mm 2 mps 745 mmHg 42%
18:00 +30°C° 0 mm 2 mps 745 mmHg 47%
19:00 +28°C° 0 mm 2 mps 746 mmHg 52%
20:00 +26°C° 0 mm 1 mps 746 mmHg 56%
21:00 +25°C° 0 mm 1 mps 746 mmHg 59%
22:00 +24°C° 0 mm 1 mps 746 mmHg 61%
23:00 +21°C° 0 mm 0 mps 747 mmHg 63%

13 May, Thursday

Time Temperature Precipitation Wind Pressure Humidity
00:00 +21°C° 0 mm 0 mps 747 mmHg 65%
01:00 +20°C° 0 mm 0 mps 747 mmHg 67%
02:00 +20°C° 0 mm 0 mps 746 mmHg 69%
03:00 +19°C° 0 mm 0 mps 747 mmHg 71%
04:00 +19°C° 0 mm 0 mps 747 mmHg 73%
05:00 +19°C° 0 mm 0 mps 747 mmHg 75%
06:00 +20°C° 0 mm 0 mps 747 mmHg 69%
07:00 +22°C° 0 mm 0 mps 748 mmHg 63%
08:00 +24°C° 0 mm 0 mps 748 mmHg 57%
09:00 +27°C° 0 mm 0 mps 748 mmHg 50%
10:00 +31°C° 0 mm 1 mps 748 mmHg 43%
11:00 +34°C° 0 mm 1 mps 747 mmHg 36%
12:00 +35°C° 0 mm 1 mps 746 mmHg 33%
13:00 +36°C° 0 mm 1 mps 746 mmHg 30%
14:00 +37°C° 0 mm 1 mps 745 mmHg 27%
15:00 +35°C° 0 mm 1 mps 745 mmHg 32%
16:00 +33°C° 0 mm 1 mps 744 mmHg 36%
17:00 +32°C° 0 mm 1 mps 744 mmHg 40%
18:00 +30°C° 0 mm 1 mps 745 mmHg 44%
19:00 +26°C° 0 mm 0 mps 745 mmHg 47%
20:00 +25°C° 0 mm 0 mps 745 mmHg 51%
21:00 +24°C° 0 mm 0 mps 746 mmHg 53%
22:00 +23°C° 0 mm 0 mps 746 mmHg 55%
23:00 +23°C° 0 mm 0 mps 746 mmHg 57%
Show more